Location: Altleiningen
(49.5078°N, 8.0741°E)
Time: 03:41:24
(UTC+00:00)

Meteor 1-11 Rocket - Pass Details

Date: 03 March 2021
Orbit: 831 x 916 km, 81.2° (Epoch: 11 April)

Event Time Altitude Azimuth Distance (km) Brightness Sun altitude
Rises 19:24:28 0° 186° (S) 3,463 6.8 -21.8°
Reaches altitude 10° 19:26:55 10° 186° (S) 2,516 6.0 -22.2°
Maximum altitude 19:32:38 81° 99° (E) 876 3.6 -23.1°
Drops below altitude 10° 19:38:15 10° 14° (NNE) 2,480 6.2 -23.9°
Sets 19:40:39 0° 13° (NNE) 3,410 6.9 -24.3°
